Location: Lake Arresoe
(56.0000°N, 12.5000°E)
Time: 14:48:46
(UTC+02:00)

Resurs 1-4 Rocket - Pass Details

Date: 02 August 2021
Orbit: 799 x 814 km, 98.6° (Epoch: 27 September)

Event Time Altitude Azimuth Distance (km) Brightness Sun altitude
Rises 02:09:53 0° 20° (NNE) 3,348 7.2 -15.4°
Reaches altitude 10° 02:12:26 10° 29° (NNE) 2,410 5.8 -15.3°
Maximum altitude 02:17:20 37° 96° (E) 1,249 3.2 -15.1°
Enters shadow 02:21:15 15° 157° (SSE) 2,055 3.8 -15.0°
